Location: ????
(55.5675°N, 37.6272°E)
Time: 05:11:42
(UTC+00:00)

SL-16 R/B - Pass Details

Date: 14 April 2026
Orbit: 841 x 845 km, 71.0° (Epoch: 10 May)

Event Time Altitude Azimuth Distance (km) Brightness Sun altitude
Rises 23:30:34 0° 325° (NW) 3,416 5.7 -20.0°
Reaches altitude 10° 23:33:05 10° 330° (NNW) 2,479 5.0 -19.9°
Maximum altitude 23:38:40 55° 48° (NE) 1,015 2.9 -19.4°
Drops below altitude 10° 23:44:14 10° 126° (SE) 2,466 4.6 -19.0°
Sets 23:46:43 0° 131° (SE) 3,398 5.3 -18.8°
